SCP
0 0 0 0 0 0 0 0 0 0 0 0 0 0 0 0 0 0 0 0 0 0 0 0 0 0 0 0 0 0 0 0 0 0 0 0 0 0
0 0 0 0 0 0 0 0 0 0 0 0 0 0 0 0 0 0 0 0 0 0 0 0 0 0 0 0 0 0 0 0 0 0 0 0 0 0
0 0 0 0 0 0 0 0 0 0 0 0 0 0 0 0 0 0 0 0 0 0 0 0 0 0 0 0 0 0 0 0 0 0 0 0 0 0
0 0 0 0 0 0 0 0 0 0 0 0 0 0 0 0 0 0 0 0 0 0 0 0 0 0 0 0 0 0 0 0 0 0 0 0 0 0
0 0 0 0 0 0 0 0 0 0 0 0 0 0 0 0 0 0 0 0 0 0 0 0 0 0 0 0 0 0 0 0 0 0 0 0 0 0
0 0 0 0 0 0 0 0 0 0 0 0 0 0 0 0 0 0 0 0 0 0 0 0 0 0 0 0 0 0 0 0 0 0 0 0 0 0
0 0 0 0 0 0 0 0 0 0 0 0 0 0 0 0 0 0 0 0 0 0 0 0 0 0 0 0 0 0 0 0 0 0 0 0 0 0
0 0 0 0 0 0 0 0 0 0 0 0 0 0 0 0 0 0 0 0 0 0 0 0 0 0 0 0 0 0 0 0 0 0 0 0 0 0
0 0 0 0 0 0 0 0 0 0 0 0 0 0 0 0 0 0 0 0 0 0 0 0 0 0 0 0 0 0 0 0 0 0 0 0 0 0
0 0 0 0 0 0 0 0 0 0 0 0 0 0 0 0 0 0 0 0 0 0 0 0 0 0 0 0 -0 0 0 0 0 0 0 0 0 0
0 0 0 0 0 0 0 0 0 0 0 0 0 0 0 0 0 0 0 0 0 0 0 0 0 0 0 0 0 0 0 0 0 0 0 0 0 0
0 0 0 0 0 0 0 0 0 0 0 0 0 0 0 0 0 0 0 0 0 0 0 0 0 0 0 0 0 0 0 0 0 0 0 0 0 0
0 0 0 0 0 0 0 0 0 0 0 0 0 0 0 0 0 0 0 0 0 0 0 0 0 0 0 0 0 0 0 0 0 0 0 0 0 0
0 0 0 0 0 0 0 0 0 0 0 0 0 0 0 0 0 0 0 0 0 0 0 0 0 0 0 0 0 0 0 0 0 0 0 0 0 0
0 0 0 0 0 0 0 0 0 0 0 0 0 0 0 0 0 0 0 0 0 0 0 0 0 0 0 0 0 0 0 0 0 0 0 0 0 0
-0 0 0 0 0 0 0 0 0 0 0 0 0 0 0 0 0 0 0 0 0 0 0 0 0 0 0 0 0 0 0 0 0 0 0 0 0 0
0 0 0 0 0 0 0 0 0 0 0 0 0 0 0 0 0 0 0 0 0 0 0 0 0 0 0 0 0 0 0 0 0 0 0 0 0 0
0 0 0 0 0 0 0 0 0 0 0 0 0 0 0 0 0 0 0 0 0 0 0 0 0 0 0 0 0 0 0 0 0 0 0 0 0 0
0 0 0 0 0 0 0 0 0 0 0 0 0 0 0 0 0 0 0 0 0 0 0 0 0 0 0 0 0 0 0 0 0 0 0 0 0 0
0 0 0 0 0 0 0 0 0 0 0 0 0 0 0 0 0 0 0 0 0 0 0 0 0 0 0 0 0 0 0 0 0 0 0 0 0 0
0 0 0 0 0 0 0 0 0 0 0 0 0 0 0 0 0 0 0 0 0 0 0 0 0 0 0 0 0 0 0 0 0 0 0 0 0 0
0 0 0 0 0 0 0 0 0 0 0 0 0 0 0 0 0 0 0 0 0 0 0 0 0 0 0 0 0 0 0 0 0 0 0 0 0 -0
0 0 0 0 0 0 0 0 0 0 0 0 0 0 0 0 0 0 0 0 0 0 0 0 0 0 0 0 0 0 0 0 0 0 0 0 0 -0
Wind_Speed_500mb
17 15 13 13 12 10 9 9 12 14 13 10 17 24 24 23 24 26 28 29 32 34 36 39 42 43 47 50 51 50 53 54 55 55 49 46 46 45
19 16 14 12 11 11 13 14 12 14 15 15 18 19 24 26 25 28 28 31 31 34 38 41 42 46 49 50 48 51 55 58 58 51 44 45 50 52
19 15 13 13 13 13 11 10 9 9 11 10 17 20 22 22 24 27 29 30 30 34 37 38 41 45 47 46 49 54 59 61 56 44 46 52 50 51
19 16 16 14 13 11 8 6 6 8 10 12 16 18 22 24 28 29 32 36 36 34 33 36 41 43 44 45 53 56 61 60 52 44 50 54 51 53
20 20 18 15 13 10 8 9 9 7 7 9 12 18 24 26 28 29 32 34 40 38 37 41 41 42 41 49 50 58 58 51 45 46 55 52 55 55
22 21 18 15 13 12 9 7 6 6 6 9 12 18 24 29 34 39 38 42 43 39 38 43 44 39 46 47 52 53 49 42 48 58 55 56 57 63
21 19 18 16 15 11 7 5 4 6 8 11 14 19 25 32 39 44 45 44 43 46 44 45 48 51 55 55 55 48 40 48 63 58 57 59 67 61
22 20 18 13 10 10 8 6 5 6 10 14 17 21 27 31 34 41 47 53 53 47 57 52 50 56 58 60 53 41 53 69 64 59 59 70 63 62
24 21 17 13 10 9 10 9 5 6 9 14 19 22 27 32 35 37 41 45 53 55 63 58 59 63 66 64 55 56 72 68 65 63 67 69 65 59
23 22 16 12 11 10 9 14 11 10 13 16 21 23 26 31 34 39 43 44 44 52 55 59 67 72 72 64 63 71 70 67 67 64 70 65 62 61
21 21 20 15 14 10 9 15 15 14 16 20 23 25 28 31 34 36 40 48 52 53 45 59 70 79 77 71 76 70 66 73 69 70 63 61 62 66
17 22 28 17 15 12 11 14 15 16 18 21 23 26 28 30 34 37 40 42 48 44 40 63 64 72 66 74 82 78 76 73 74 65 68 63 67 74
21 26 24 20 17 14 14 15 16 18 20 21 24 28 31 31 32 34 37 39 42 43 44 54 58 63 62 83 89 76 81 76 78 77 80 78 74 68
23 28 24 25 20 18 17 16 19 22 22 25 28 31 32 32 33 33 34 36 38 43 45 45 52 54 61 76 86 88 79 80 76 86 90 87 79 74
28 26 26 26 25 21 20 20 22 23 24 28 32 34 35 35 34 33 33 34 34 37 40 44 48 51 52 62 76 84 87 92 80 91 93 91 89 90
32 32 27 26 26 25 23 23 23 25 27 32 35 36 35 35 35 37 37 38 37 32 34 41 47 50 56 59 65 77 74 76 98 95 94 96 96 92
32 31 28 28 28 27 25 25 25 27 30 34 37 38 37 35 35 38 40 41 44 51 51 47 49 53 54 56 73 68 77 88 91 97 96 98 105 103
34 31 31 30 29 28 27 26 28 29 32 36 38 38 37 36 36 36 40 43 46 48 52 54 62 70 76 70 60 72 80 90 95 98 96 92 107 111
38 36 34 32 30 28 27 29 31 30 33 36 38 40 39 38 38 37 39 41 43 46 46 48 55 59 74 88 88 71 84 90 94 96 97 99 103 118
42 40 36 32 30 27 29 32 33 34 34 37 39 40 39 38 37 38 39 42 44 47 49 46 51 54 62 75 91 93 81 83 84 93 99 101 105 100
38 39 36 32 29 29 32 34 35 35 35 37 38 39 38 38 37 39 40 41 44 48 52 51 52 50 58 71 82 95 95 82 78 81 86 98 100 108
37 37 34 33 30 31 34 36 36 35 36 37 38 38 38 38 38 39 39 42 42 46 50 51 54 56 60 69 82 94 101 102 100 102 87 71 83 99
38 37 37 34 33 34 36 37 37 37 36 36 37 38 38 37 38 39 39 40 44 46 49 57 58 56 60 70 81 94 99 107 116 123 116 113 104 93
Wind_Direction_500mb
289 281 274 270 272 275 273 262 229 192 188 221 285 312 320 329 336 340 339 338 339 338 335 330 327 329 330 329 326 324 320 318 316 317 323 325 322 320
292 289 288 288 285 285 284 281 264 239 212 238 276 300 315 333 341 342 339 338 338 337 334 330 333 333 329 326 323 320 318 316 318 323 328 322 320 319
290 286 283 287 294 294 285 273 255 238 228 250 284 306 318 331 337 341 336 333 337 336 333 333 335 331 327 327 323 320 318 318 321 329 324 324 322 317
279 275 284 287 280 271 258 241 246 253 253 252 285 307 322 335 341 341 340 340 341 342 339 339 340 335 334 327 325 323 322 323 322 328 323 324 321 320
279 285 283 277 266 243 234 252 261 259 269 280 302 316 326 332 336 339 338 341 344 352 344 350 345 342 337 332 330 326 325 323 332 326 324 323 320 318
280 282 282 273 265 262 250 242 252 255 280 298 315 322 330 337 337 337 341 347 346 346 350 350 343 343 341 339 334 332 330 336 333 326 325 323 320 317
283 282 270 258 265 266 270 272 280 298 310 321 334 333 335 341 345 345 340 344 345 345 352 346 345 344 345 341 342 339 335 334 328 328 327 324 322 320
278 273 263 263 262 268 264 264 295 331 333 335 340 342 343 343 340 340 343 346 350 344 341 353 346 346 344 347 345 339 334 333 330 327 326 324 324 319
260 249 257 266 261 272 291 291 299 319 332 340 343 343 340 338 339 336 341 347 345 342 340 344 344 344 346 347 349 347 337 333 330 329 325 325 322 320
253 259 258 251 257 261 292 295 308 326 341 341 341 336 336 336 336 338 341 343 341 339 340 339 342 339 341 346 349 345 337 334 333 328 327 325 323 319
247 260 266 246 244 253 280 288 302 317 329 335 334 334 332 330 334 336 337 339 343 346 340 339 336 333 338 344 344 343 339 337 338 333 330 328 325 322
246 251 258 253 250 262 275 278 289 311 325 328 329 328 327 330 334 337 339 342 343 346 334 330 336 342 337 339 340 344 341 343 338 339 339 335 331 325
235 247 254 258 257 267 271 278 291 306 314 320 324 324 325 330 333 335 338 339 339 335 333 329 332 341 336 331 335 342 343 339 342 343 345 340 334 326
237 247 245 258 263 270 274 281 293 303 311 321 323 322 323 327 329 332 335 337 336 332 332 331 332 338 334 331 329 335 340 342 344 345 343 338 336 335
244 243 243 254 264 272 276 285 295 302 313 317 317 318 322 325 326 330 331 331 335 330 329 331 332 335 332 327 322 334 340 339 345 343 341 339 339 340
236 242 249 253 265 270 278 285 293 300 311 311 312 316 319 322 324 326 328 329 330 330 334 333 335 332 330 331 329 334 342 332 340 340 339 341 339 336
238 240 247 252 262 269 276 283 290 302 306 306 311 314 317 322 324 325 328 330 334 335 338 338 337 333 329 339 337 339 337 337 340 340 337 325 334 332
236 242 248 254 261 267 273 282 293 298 302 305 309 313 318 321 322 323 325 329 332 335 338 339 340 337 337 338 347 338 336 336 340 340 331 321 321 331
237 243 249 253 260 267 279 287 291 296 298 303 310 316 319 319 319 322 326 327 329 331 338 341 342 342 337 334 335 350 336 339 336 330 329 325 319 318
237 243 249 253 262 274 282 286 291 295 298 305 311 313 313 313 318 322 324 326 329 332 336 342 345 342 337 333 330 338 348 337 331 326 323 327 321 328
240 240 246 255 267 278 284 287 289 291 297 302 307 308 310 313 318 319 323 327 328 332 334 339 343 338 335 336 337 338 342 347 342 325 325 320 318 319
229 237 250 259 269 279 284 286 289 293 295 299 304 309 310 312 314 316 322 326 330 330 330 334 340 338 343 342 338 340 343 346 348 347 337 325 321 318
241 249 255 262 272 280 285 289 291 291 293 297 304 308 309 310 311 317 322 325 327 329 331 333 339 341 344 342 341 343 347 347 349 346 347 352 344 331
Wind_Speed_850mb
17 15 13 13 12 10 9 9 12 14 13 10 17 24 24 23 24 26 28 29 32 34 36 39 42 43 47 50 51 50 53 54 55 55 49 46 46 45
19 16 14 12 11 11 13 14 12 14 15 15 18 19 24 26 25 28 28 31 31 34 38 41 42 46 49 50 48 51 55 58 58 51 44 45 50 52
19 15 13 13 13 13 11 10 9 9 11 10 17 20 22 22 24 27 29 30 30 34 37 38 41 45 47 46 49 54 59 61 56 44 46 52 50 51
19 16 16 14 13 11 8 6 6 8 10 12 16 18 22 24 28 29 32 36 36 34 33 36 41 43 44 45 53 56 61 60 52 44 50 54 51 53
20 20 18 15 13 10 8 9 9 7 7 9 12 18 24 26 28 29 32 34 40 38 37 41 41 42 41 49 50 58 58 51 45 46 55 52 55 55
22 21 18 15 13 12 9 7 6 6 6 9 12 18 24 29 34 39 38 42 43 39 38 43 44 39 46 47 52 53 49 42 48 58 55 56 57 63
21 19 18 16 15 11 7 5 4 6 8 11 14 19 25 32 39 44 45 44 43 46 44 45 48 51 55 55 55 48 40 48 63 58 57 59 67 61
22 20 18 13 10 10 8 6 5 6 10 14 17 21 27 31 34 41 47 53 53 47 57 52 50 56 58 60 53 41 53 69 64 59 59 70 63 62
24 21 17 13 10 9 10 9 5 6 9 14 19 22 27 32 35 37 41 45 53 55 63 58 59 63 66 64 55 56 72 68 65 63 67 69 65 59
23 22 16 12 11 10 9 14 11 10 13 16 21 23 26 31 34 39 43 44 44 52 55 59 67 72 72 64 63 71 70 67 67 64 70 65 62 61
21 21 20 15 14 10 9 15 15 14 16 20 23 25 28 31 34 36 40 48 52 53 45 59 70 79 77 71 76 70 66 73 69 70 63 61 62 66
17 22 28 17 15 12 11 14 15 16 18 21 23 26 28 30 34 37 40 42 48 44 40 63 64 72 66 74 82 78 76 73 74 65 68 63 67 74
21 26 24 20 17 14 14 15 16 18 20 21 24 28 31 31 32 34 37 39 42 43 44 54 58 63 62 83 89 76 81 76 78 77 80 78 74 68
23 28 24 25 20 18 17 16 19 22 22 25 28 31 32 32 33 33 34 36 38 43 45 45 52 54 61 76 86 88 79 80 76 86 90 87 79 74
28 26 26 26 25 21 20 20 22 23 24 28 32 34 35 35 34 33 33 34 34 37 40 44 48 51 52 62 76 84 87 92 80 91 93 91 89 90
32 32 27 26 26 25 23 23 23 25 27 32 35 36 35 35 35 37 37 38 37 32 34 41 47 50 56 59 65 77 74 76 98 95 94 96 96 92
32 31 28 28 28 27 25 25 25 27 30 34 37 38 37 35 35 38 40 41 44 51 51 47 49 53 54 56 73 68 77 88 91 97 96 98 105 103
34 31 31 30 29 28 27 26 28 29 32 36 38 38 37 36 36 36 40 43 46 48 52 54 62 70 76 70 60 72 80 90 95 98 96 92 107 111
38 36 34 32 30 28 27 29 31 30 33 36 38 40 39 38 38 37 39 41 43 46 46 48 55 59 74 88 88 71 84 90 94 96 97 99 103 118
42 40 36 32 30 27 29 32 33 34 34 37 39 40 39 38 37 38 39 42 44 47 49 46 51 54 62 75 91 93 81 83 84 93 99 101 105 100
38 39 36 32 29 29 32 34 35 35 35 37 38 39 38 38 37 39 40 41 44 48 52 51 52 50 58 71 82 95 95 82 78 81 86 98 100 108
37 37 34 33 30 31 34 36 36 35 36 37 38 38 38 38 38 39 39 42 42 46 50 51 54 56 60 69 82 94 101 102 100 102 87 71 83 99
38 37 37 34 33 34 36 37 37 37 36 36 37 38 38 37 38 39 39 40 44 46 49 57 58 56 60 70 81 94 99 107 116 123 116 113 104 93
Wind_Direction_850mb
289 281 274 270 272 275 273 262 229 192 188 221 285 312 320 329 336 340 339 338 339 338 335 330 327 329 330 329 326 324 320 318 316 317 323 325 322 320
292 289 288 288 285 285 284 281 264 239 212 238 276 300 315 333 341 342 339 338 338 337 334 330 333 333 329 326 323 320 318 316 318 323 328 322 320 319
290 286 283 287 294 294 285 273 255 238 228 250 284 306 318 331 337 341 336 333 337 336 333 333 335 331 327 327 323 320 318 318 321 329 324 324 322 317
279 275 284 287 280 271 258 241 246 253 253 252 285 307 322 335 341 341 340 340 341 342 339 339 340 335 334 327 325 323 322 323 322 328 323 324 321 320
279 285 283 277 266 243 234 252 261 259 269 280 302 316 326 332 336 339 338 341 344 352 344 350 345 342 337 332 330 326 325 323 332 326 324 323 320 318
280 282 282 273 265 262 250 242 252 255 280 298 315 322 330 337 337 337 341 347 346 346 350 350 343 343 341 339 334 332 330 336 333 326 325 323 320 317
283 282 270 258 265 266 270 272 280 298 310 321 334 333 335 341 345 345 340 344 345 345 352 346 345 344 345 341 342 339 335 334 328 328 327 324 322 320
278 273 263 263 262 268 264 264 295 331 333 335 340 342 343 343 340 340 343 346 350 344 341 353 346 346 344 347 345 339 334 333 330 327 326 324 324 319
260 249 257 266 261 272 291 291 299 319 332 340 343 343 340 338 339 336 341 347 345 342 340 344 344 344 346 347 349 347 337 333 330 329 325 325 322 320
253 259 258 251 257 261 292 295 308 326 341 341 341 336 336 336 336 338 341 343 341 339 340 339 342 339 341 346 349 345 337 334 333 328 327 325 323 319
247 260 266 246 244 253 280 288 302 317 329 335 334 334 332 330 334 336 337 339 343 346 340 339 336 333 338 344 344 343 339 337 338 333 330 328 325 322
246 251 258 253 250 262 275 278 289 311 325 328 329 328 327 330 334 337 339 342 343 346 334 330 336 342 337 339 340 344 341 343 338 339 339 335 331 325
235 247 254 258 257 267 271 278 291 306 314 320 324 324 325 330 333 335 338 339 339 335 333 329 332 341 336 331 335 342 343 339 342 343 345 340 334 326
237 247 245 258 263 270 274 281 293 303 311 321 323 322 323 327 329 332 335 337 336 332 332 331 332 338 334 331 329 335 340 342 344 345 343 338 336 335
244 243 243 254 264 272 276 285 295 302 313 317 317 318 322 325 326 330 331 331 335 330 329 331 332 335 332 327 322 334 340 339 345 343 341 339 339 340
236 242 249 253 265 270 278 285 293 300 311 311 312 316 319 322 324 326 328 329 330 330 334 333 335 332 330 331 329 334 342 332 340 340 339 341 339 336
238 240 247 252 262 269 276 283 290 302 306 306 311 314 317 322 324 325 328 330 334 335 338 338 337 333 329 339 337 339 337 337 340 340 337 325 334 332
236 242 248 254 261 267 273 282 293 298 302 305 309 313 318 321 322 323 325 329 332 335 338 339 340 337 337 338 347 338 336 336 340 340 331 321 321 331
237 243 249 253 260 267 279 287 291 296 298 303 310 316 319 319 319 322 326 327 329 331 338 341 342 342 337 334 335 350 336 339 336 330 329 325 319 318
237 243 249 253 262 274 282 286 291 295 298 305 311 313 313 313 318 322 324 326 329 332 336 342 345 342 337 333 330 338 348 337 331 326 323 327 321 328
240 240 246 255 267 278 284 287 289 291 297 302 307 308 310 313 318 319 323 327 328 332 334 339 343 338 335 336 337 338 342 347 342 325 325 320 318 319
229 237 250 259 269 279 284 286 289 293 295 299 304 309 310 312 314 316 322 326 330 330 330 334 340 338 343 342 338 340 343 346 348 347 337 325 321 318
241 249 255 262 272 280 285 289 291 291 293 297 304 308 309 310 311 317 322 325 327 329 331 333 339 341 344 342 341 343 347 347 349 346 347 352 344 331